When you browse on this site, cookies collect data to enhance your experience and personalize the content and advertising you see.
Visit our Privacy Policy to learn more. By continuing to use the site, you agree to this use of cookies and data.
  • In Hungary
  • List of Countries
  • For 7 days
  • Water Temperature
  • Weather Map
  • News
  • Weather Widgets
  • user-avatar
    Login

    Hourly Weather Abrosimovo

    Today, 24 January, Friday

    Time Temperature Precipitation Wind Pressure Humidity
    00:00 -8°C° 0 mm 3 mps 735 mmHg 80%
    01:00 -8°C° 0 mm 3 mps 734 mmHg 81%
    02:00 -7°C° 0 mm 3 mps 734 mmHg 82%
    03:00 -7°C° 0.1 mm 3 mps 733 mmHg 85%
    04:00 -7°C° 0.1 mm 4 mps 732 mmHg 89%
    05:00 -7°C° 0.1 mm 5 mps 731 mmHg 92%
    06:00 -6°C° 0.3 mm 5 mps 730 mmHg 92%
    07:00 -6°C° 0.3 mm 5 mps 729 mmHg 93%
    08:00 -6°C° 0.3 mm 6 mps 728 mmHg 94%
    09:00 -5°C° 0.1 mm 6 mps 728 mmHg 92%
    10:00 -4°C° 0.1 mm 5 mps 727 mmHg 90%
    11:00 -2°C° 0.1 mm 5 mps 727 mmHg 88%
    12:00 -2°C° 0 mm 5 mps 726 mmHg 88%
    13:00 -1°C° 0 mm 5 mps 726 mmHg 88%
    14:00 -1°C° 0 mm 4 mps 726 mmHg 89%
    15:00 -1°C° 0.1 mm 4 mps 725 mmHg 91%
    16:00 -1°C° 0.1 mm 4 mps 725 mmHg 93%
    17:00 -2°C° 0.1 mm 5 mps 725 mmHg 95%
    18:00 -2°C° 0.1 mm 5 mps 725 mmHg 91%
    19:00 -2°C° 0.1 mm 5 mps 725 mmHg 87%
    20:00 -4°C° 0.1 mm 5 mps 726 mmHg 83%
    21:00 -4°C° 0 mm 5 mps 726 mmHg 85%
    22:00 -5°C° 0 mm 5 mps 726 mmHg 86%
    23:00 -5°C° 0 mm 4 mps 726 mmHg 88%

    Tomorrow, 25 January, Saturday

    Time Temperature Precipitation Wind Pressure Humidity
    00:00 -5°C° 0 mm 4 mps 726 mmHg 88%
    01:00 -5°C° 0 mm 4 mps 726 mmHg 89%
    02:00 -5°C° 0 mm 4 mps 725 mmHg 89%
    03:00 -4°C° 0 mm 4 mps 725 mmHg 88%
    04:00 -4°C° 0 mm 4 mps 725 mmHg 87%
    05:00 -4°C° 0 mm 5 mps 724 mmHg 86%
    06:00 -3°C° 0 mm 4 mps 724 mmHg 85%
    07:00 -3°C° 0 mm 4 mps 724 mmHg 85%
    08:00 -3°C° 0 mm 4 mps 723 mmHg 84%
    09:00 -3°C° 0.1 mm 4 mps 723 mmHg 85%
    10:00 -4°C° 0.1 mm 5 mps 722 mmHg 86%
    11:00 -3°C° 0.1 mm 6 mps 722 mmHg 87%
    12:00 -4°C° 0.3 mm 6 mps 722 mmHg 80%
    13:00 -4°C° 0.3 mm 6 mps 721 mmHg 74%
    14:00 -4°C° 0.3 mm 6 mps 721 mmHg 68%
    15:00 -5°C° 0 mm 6 mps 722 mmHg 71%
    16:00 -5°C° 0 mm 6 mps 722 mmHg 75%
    17:00 -6°C° 0 mm 5 mps 723 mmHg 78%
    18:00 -6°C° 0 mm 5 mps 723 mmHg 78%
    19:00 -6°C° 0 mm 5 mps 724 mmHg 79%
    20:00 -6°C° 0 mm 5 mps 724 mmHg 80%
    21:00 -6°C° 0.1 mm 6 mps 725 mmHg 82%
    22:00 -6°C° 0.1 mm 6 mps 726 mmHg 84%
    23:00 -6°C° 0.1 mm 6 mps 726 mmHg 87%

    Day after tomorrow, 26 January, Sunday

    Time Temperature Precipitation Wind Pressure Humidity
    00:00 -7°C° 0 mm 5 mps 727 mmHg 86%
    01:00 -7°C° 0 mm 5 mps 728 mmHg 84%
    02:00 -8°C° 0 mm 5 mps 729 mmHg 83%
    03:00 -7°C° 0 mm 5 mps 730 mmHg 82%
    04:00 -7°C° 0 mm 5 mps 731 mmHg 81%
    05:00 -7°C° 0 mm 5 mps 732 mmHg 79%
    06:00 -8°C° 0 mm 5 mps 732 mmHg 81%
    07:00 -8°C° 0 mm 4 mps 733 mmHg 83%
    08:00 -8°C° 0 mm 4 mps 733 mmHg 85%
    09:00 -8°C° 0 mm 4 mps 734 mmHg 82%
    10:00 -7°C° 0 mm 4 mps 734 mmHg 79%
    11:00 -5°C° 0 mm 4 mps 735 mmHg 76%
    12:00 -5°C° 0 mm 4 mps 735 mmHg 77%
    13:00 -5°C° 0 mm 4 mps 735 mmHg 78%
    14:00 -5°C° 0 mm 4 mps 735 mmHg 80%
    15:00 -5°C° 0 mm 4 mps 735 mmHg 82%
    16:00 -5°C° 0 mm 3 mps 735 mmHg 85%
    17:00 -4°C° 0 mm 2 mps 735 mmHg 87%
    18:00 -4°C° 0.3 mm 2 mps 734 mmHg 90%
    19:00 -4°C° 0.3 mm 2 mps 734 mmHg 93%
    20:00 -2°C° 0.3 mm 1 mps 734 mmHg 96%
    21:00 -4°C° 0.6 mm 2 mps 733 mmHg 96%
    22:00 -4°C° 0.6 mm 2 mps 733 mmHg 96%
    23:00 -4°C° 0.6 mm 2 mps 733 mmHg 96%

    27 January, Monday

    Time Temperature Precipitation Wind Pressure Humidity
    00:00 -2°C° 0.4 mm 1 mps 733 mmHg 96%
    01:00 -1°C° 0.4 mm 1 mps 733 mmHg 97%
    02:00 -1°C° 0.4 mm 1 mps 733 mmHg 97%
    03:00 -1°C° 0.3 mm 1 mps 733 mmHg 97%
    04:00 -1°C° 0.3 mm 1 mps 733 mmHg 97%
    05:00 -1°C° 0.3 mm 1 mps 734 mmHg 97%
    06:00 -2°C° 0.1 mm 1 mps 734 mmHg 97%
    07:00 -3°C° 0.1 mm 0 mps 734 mmHg 97%
    08:00 -3°C° 0.1 mm 0 mps 734 mmHg 97%
    09:00 -3°C° 0.1 mm 0 mps 735 mmHg 96%
    10:00 -2°C° 0.1 mm 0 mps 735 mmHg 96%
    11:00 -1°C° 0.1 mm 0 mps 735 mmHg 95%
    12:00 -1°C° 0.3 mm 0 mps 735 mmHg 95%
    13:00 0°C° 0.3 mm 1 mps 735 mmHg 96%
    14:00 0°C° 0.3 mm 1 mps 735 mmHg 97%
    15:00 0°C° 0.4 mm 1 mps 735 mmHg 97%
    16:00 -1°C° 0.4 mm 1 mps 735 mmHg 97%
    17:00 -3°C° 0.4 mm 2 mps 736 mmHg 97%
    18:00 -3°C° 0.2 mm 2 mps 736 mmHg 97%
    19:00 -3°C° 0.2 mm 2 mps 736 mmHg 97%
    20:00 -3°C° 0.2 mm 2 mps 736 mmHg 96%
    21:00 -3°C° 0.2 mm 2 mps 736 mmHg 96%
    22:00 -3°C° 0.2 mm 2 mps 736 mmHg 96%
    23:00 -4°C° 0.2 mm 2 mps 736 mmHg 96%

    28 January, Tuesday

    Time Temperature Precipitation Wind Pressure Humidity
    00:00 -4°C° 0.2 mm 2 mps 736 mmHg 96%
    01:00 -4°C° 0.2 mm 2 mps 736 mmHg 96%
    02:00 -4°C° 0.2 mm 2 mps 736 mmHg 96%
    03:00 -4°C° 0.2 mm 2 mps 736 mmHg 96%
    04:00 -4°C° 0.2 mm 2 mps 736 mmHg 96%
    05:00 -4°C° 0.2 mm 2 mps 736 mmHg 96%
    06:00 -4°C° 0.3 mm 2 mps 736 mmHg 96%
    07:00 -4°C° 0.3 mm 2 mps 736 mmHg 96%
    08:00 -4°C° 0.3 mm 2 mps 736 mmHg 96%
    09:00 -3°C° 0.1 mm 2 mps 736 mmHg 96%
    10:00 -3°C° 0.1 mm 2 mps 736 mmHg 96%
    11:00 -3°C° 0.1 mm 2 mps 737 mmHg 96%
    12:00 -3°C° 0.1 mm 2 mps 736 mmHg 96%
    13:00 -3°C° 0.1 mm 2 mps 736 mmHg 97%
    14:00 -2°C° 0.1 mm 2 mps 736 mmHg 97%
    15:00 -2°C° 0.2 mm 2 mps 736 mmHg 97%
    16:00 -2°C° 0.2 mm 2 mps 736 mmHg 97%
    17:00 -2°C° 0.2 mm 3 mps 736 mmHg 97%
    18:00 -2°C° 0.1 mm 3 mps 736 mmHg 97%
    19:00 -2°C° 0.1 mm 3 mps 736 mmHg 96%
    20:00 -2°C° 0.1 mm 3 mps 736 mmHg 96%
    21:00 -3°C° 0 mm 4 mps 736 mmHg 96%
    22:00 -3°C° 0 mm 4 mps 735 mmHg 95%
    23:00 -3°C° 0 mm 4 mps 735 mmHg 95%

    29 January, Wednesday

    Time Temperature Precipitation Wind Pressure Humidity
    00:00 -2°C° 0 mm 4 mps 735 mmHg 95%
    01:00 -2°C° 0 mm 4 mps 734 mmHg 95%
    02:00 -2°C° 0 mm 5 mps 734 mmHg 95%
    03:00 -2°C° 0.1 mm 5 mps 734 mmHg 95%
    04:00 -2°C° 0.1 mm 5 mps 733 mmHg 96%
    05:00 -2°C° 0.1 mm 5 mps 733 mmHg 96%
    06:00 -1°C° 0 mm 5 mps 732 mmHg 96%
    07:00 -2°C° 0 mm 6 mps 732 mmHg 96%
    08:00 -2°C° 0 mm 6 mps 732 mmHg 96%
    09:00 -2°C° 0.3 mm 6 mps 731 mmHg 96%
    10:00 -2°C° 0.3 mm 6 mps 731 mmHg 96%
    11:00 -3°C° 0.3 mm 6 mps 731 mmHg 97%
    12:00 -3°C° 0.5 mm 6 mps 730 mmHg 97%
    13:00 -3°C° 0.5 mm 6 mps 730 mmHg 97%
    14:00 -3°C° 0.5 mm 6 mps 729 mmHg 97%
    15:00 -2°C° 0.6 mm 5 mps 729 mmHg 97%
    16:00 -2°C° 0.6 mm 5 mps 729 mmHg 97%
    17:00 -2°C° 0.6 mm 4 mps 729 mmHg 97%
    18:00 -2°C° 0.1 mm 4 mps 729 mmHg 97%
    19:00 -1°C° 0.1 mm 3 mps 729 mmHg 97%
    20:00 -1°C° 0.1 mm 3 mps 729 mmHg 97%
    21:00 -1°C° 0 mm 3 mps 729 mmHg 96%
    22:00 -1°C° 0 mm 3 mps 729 mmHg 94%
    23:00 -2°C° 0 mm 4 mps 729 mmHg 93%
    Show more